When you browse on this site, cookies collect data to enhance your experience and personalize the content and advertising you see.
Visit our Privacy Policy to learn more. By continuing to use the site, you agree to this use of cookies and data.
  • In Sweden
  • List of Countries
  • For 7 days
  • Water Temperature
  • Satellite Maps
  • Weather Map
  • Weather Widgets
  • user-avatar
    Login

    Hourly Weather Oran

    Today, 17 July, Wednesday

    Time Temperature Precipitation Wind Pressure Humidity
    00:00 +28°C° 0 mm 3 mps 749 mmHg 58%
    01:00 +28°C° 0 mm 3 mps 749 mmHg 63%
    02:00 +27°C° 0 mm 3 mps 748 mmHg 69%
    03:00 +26°C° 0 mm 2 mps 748 mmHg 75%
    04:00 +26°C° 0 mm 2 mps 748 mmHg 75%
    05:00 +26°C° 0 mm 3 mps 749 mmHg 76%
    06:00 +26°C° 0 mm 3 mps 749 mmHg 77%
    07:00 +27°C° 0 mm 3 mps 749 mmHg 71%
    08:00 +28°C° 0 mm 3 mps 749 mmHg 65%
    09:00 +29°C° 0 mm 3 mps 749 mmHg 59%
    10:00 +30°C° 0 mm 4 mps 749 mmHg 57%
    11:00 +30°C° 0 mm 4 mps 750 mmHg 56%
    12:00 +32°C° 0 mm 5 mps 750 mmHg 54%
    13:00 +32°C° 0 mm 4 mps 749 mmHg 54%
    14:00 +32°C° 0 mm 4 mps 749 mmHg 54%
    15:00 +32°C° 0 mm 4 mps 749 mmHg 53%
    16:00 +30°C° 0 mm 4 mps 749 mmHg 56%
    17:00 +30°C° 0 mm 3 mps 749 mmHg 58%
    18:00 +29°C° 0 mm 3 mps 749 mmHg 61%
    19:00 +28°C° 0 mm 3 mps 750 mmHg 67%
    20:00 +27°C° 0 mm 4 mps 750 mmHg 74%
    21:00 +26°C° 0 mm 4 mps 750 mmHg 81%
    22:00 +25°C° 0 mm 4 mps 750 mmHg 82%
    23:00 +25°C° 0 mm 4 mps 750 mmHg 84%

    Tomorrow, 18 July, Thursday

    Time Temperature Precipitation Wind Pressure Humidity
    00:00 +25°C° 0 mm 3 mps 750 mmHg 85%
    01:00 +24°C° 0 mm 3 mps 749 mmHg 85%
    02:00 +24°C° 0 mm 2 mps 749 mmHg 85%
    03:00 +24°C° 0 mm 2 mps 749 mmHg 84%
    04:00 +24°C° 0 mm 1 mps 749 mmHg 83%
    05:00 +24°C° 0 mm 1 mps 750 mmHg 82%
    06:00 +24°C° 0 mm 1 mps 750 mmHg 81%
    07:00 +26°C° 0 mm 1 mps 750 mmHg 69%
    08:00 +27°C° 0 mm 1 mps 750 mmHg 57%
    09:00 +29°C° 0 mm 1 mps 751 mmHg 45%
    10:00 +30°C° 0 mm 2 mps 750 mmHg 41%
    11:00 +31°C° 0 mm 2 mps 750 mmHg 37%
    12:00 +32°C° 0 mm 2 mps 750 mmHg 33%
    13:00 +34°C° 0 mm 3 mps 750 mmHg 33%
    14:00 +34°C° 0 mm 3 mps 749 mmHg 34%
    15:00 +34°C° 0 mm 4 mps 749 mmHg 34%
    16:00 +33°C° 0 mm 4 mps 749 mmHg 37%
    17:00 +32°C° 0 mm 4 mps 749 mmHg 41%
    18:00 +30°C° 0 mm 4 mps 749 mmHg 44%
    19:00 +29°C° 0 mm 3 mps 749 mmHg 48%
    20:00 +29°C° 0 mm 3 mps 749 mmHg 53%
    21:00 +28°C° 0 mm 2 mps 750 mmHg 57%
    22:00 +27°C° 0 mm 2 mps 750 mmHg 59%
    23:00 +27°C° 0 mm 2 mps 749 mmHg 60%

    Day after tomorrow, 19 July, Friday

    Time Temperature Precipitation Wind Pressure Humidity
    00:00 +26°C° 0 mm 2 mps 749 mmHg 61%
    01:00 +26°C° 0 mm 2 mps 749 mmHg 68%
    02:00 +25°C° 0 mm 2 mps 749 mmHg 74%
    03:00 +25°C° 0 mm 2 mps 749 mmHg 81%
    04:00 +25°C° 0 mm 2 mps 749 mmHg 82%
    05:00 +25°C° 0 mm 2 mps 749 mmHg 83%
    06:00 +25°C° 0 mm 2 mps 749 mmHg 83%
    07:00 +27°C° 0 mm 2 mps 749 mmHg 74%
    08:00 +28°C° 0 mm 2 mps 750 mmHg 64%
    09:00 +30°C° 0 mm 2 mps 750 mmHg 54%
    10:00 +33°C° 0 mm 3 mps 750 mmHg 48%
    11:00 +35°C° 0 mm 4 mps 749 mmHg 42%
    12:00 +37°C° 0 mm 5 mps 749 mmHg 36%
    13:00 +38°C° 0 mm 6 mps 748 mmHg 36%
    14:00 +38°C° 0 mm 6 mps 748 mmHg 37%
    15:00 +38°C° 0 mm 7 mps 747 mmHg 37%
    16:00 +38°C° 0 mm 7 mps 747 mmHg 37%
    17:00 +36°C° 0 mm 6 mps 747 mmHg 37%
    18:00 +35°C° 0 mm 6 mps 747 mmHg 36%
    19:00 +34°C° 0 mm 5 mps 747 mmHg 38%
    20:00 +34°C° 0 mm 4 mps 748 mmHg 40%
    21:00 +33°C° 0 mm 3 mps 748 mmHg 42%
    22:00 +31°C° 0 mm 3 mps 748 mmHg 46%
    23:00 +31°C° 0 mm 3 mps 748 mmHg 49%

    20 July, Saturday

    Time Temperature Precipitation Wind Pressure Humidity
    00:00 +30°C° 0 mm 2 mps 748 mmHg 52%
    01:00 +29°C° 0 mm 2 mps 748 mmHg 56%
    02:00 +29°C° 0 mm 2 mps 748 mmHg 60%
    03:00 +28°C° 0 mm 2 mps 747 mmHg 64%
    04:00 +28°C° 0 mm 2 mps 747 mmHg 63%
    05:00 +29°C° 0 mm 2 mps 747 mmHg 61%
    06:00 +29°C° 0 mm 1 mps 748 mmHg 59%
    07:00 +31°C° 0 mm 2 mps 748 mmHg 53%
    08:00 +32°C° 0 mm 2 mps 748 mmHg 47%
    09:00 +35°C° 0 mm 2 mps 749 mmHg 41%
    10:00 +36°C° 0 mm 2 mps 749 mmHg 39%
    11:00 +37°C° 0 mm 3 mps 749 mmHg 37%
    12:00 +38°C° 0 mm 3 mps 749 mmHg 36%
    13:00 +40°C° 0 mm 4 mps 749 mmHg 35%
    14:00 +40°C° 0 mm 4 mps 748 mmHg 34%
    15:00 +40°C° 0 mm 5 mps 748 mmHg 32%
    16:00 +40°C° 0 mm 4 mps 748 mmHg 32%
    17:00 +38°C° 0 mm 3 mps 749 mmHg 32%
    18:00 +37°C° 0 mm 2 mps 749 mmHg 32%
    19:00 +35°C° 0 mm 2 mps 750 mmHg 42%
    20:00 +33°C° 0 mm 3 mps 751 mmHg 52%
    21:00 +30°C° 0 mm 3 mps 751 mmHg 62%
    22:00 +29°C° 0 mm 3 mps 751 mmHg 64%
    23:00 +29°C° 0 mm 3 mps 751 mmHg 66%

    21 July, Sunday

    Time Temperature Precipitation Wind Pressure Humidity
    00:00 +28°C° 0 mm 2 mps 751 mmHg 68%
    01:00 +29°C° 0 mm 2 mps 751 mmHg 67%
    02:00 +29°C° 0 mm 2 mps 750 mmHg 66%
    03:00 +29°C° 0 mm 1 mps 750 mmHg 65%
    04:00 +29°C° 0 mm 2 mps 750 mmHg 64%
    05:00 +29°C° 0 mm 2 mps 750 mmHg 63%
    06:00 +29°C° 0 mm 3 mps 750 mmHg 62%
    07:00 +31°C° 0 mm 3 mps 751 mmHg 55%
    08:00 +34°C° 0 mm 3 mps 751 mmHg 47%
    09:00 +36°C° 0 mm 3 mps 751 mmHg 40%
    10:00 +37°C° 0 mm 3 mps 751 mmHg 37%
    11:00 +39°C° 0 mm 3 mps 752 mmHg 35%
    12:00 +41°C° 0 mm 4 mps 752 mmHg 32%
    13:00 +41°C° 0 mm 5 mps 751 mmHg 33%
    14:00 +40°C° 0 mm 6 mps 751 mmHg 34%
    15:00 +40°C° 0 mm 7 mps 750 mmHg 35%
    16:00 +39°C° 0 mm 6 mps 750 mmHg 35%
    17:00 +38°C° 0 mm 4 mps 751 mmHg 34%
    18:00 +37°C° 0 mm 3 mps 751 mmHg 34%
    19:00 +36°C° 0 mm 3 mps 751 mmHg 40%
    20:00 +34°C° 0 mm 3 mps 752 mmHg 46%
    21:00 +31°C° 0 mm 3 mps 752 mmHg 53%
    22:00 +30°C° 0 mm 3 mps 752 mmHg 59%
    23:00 +29°C° 0 mm 2 mps 752 mmHg 66%

    22 July, Monday

    Time Temperature Precipitation Wind Pressure Humidity
    00:00 +28°C° 0 mm 2 mps 751 mmHg 73%
    01:00 +28°C° 0 mm 2 mps 751 mmHg 74%
    02:00 +27°C° 0 mm 1 mps 751 mmHg 76%
    03:00 +27°C° 0 mm 1 mps 751 mmHg 77%
    04:00 +27°C° 0 mm 1 mps 751 mmHg 74%
    05:00 +28°C° 0 mm 1 mps 751 mmHg 71%
    06:00 +28°C° 0 mm 2 mps 751 mmHg 67%
    07:00 +30°C° 0 mm 2 mps 751 mmHg 62%
    08:00 +31°C° 0 mm 2 mps 751 mmHg 57%
    09:00 +34°C° 0 mm 2 mps 751 mmHg 51%
    10:00 +34°C° 0 mm 2 mps 751 mmHg 49%
    11:00 +35°C° 0 mm 2 mps 751 mmHg 46%
    12:00 +36°C° 0 mm 3 mps 751 mmHg 44%
    13:00 +36°C° 0 mm 3 mps 751 mmHg 43%
    14:00 +37°C° 0 mm 3 mps 750 mmHg 42%
    15:00 +37°C° 0 mm 3 mps 750 mmHg 41%
    16:00 +36°C° 0 mm 3 mps 750 mmHg 44%
    17:00 +35°C° 0 mm 2 mps 750 mmHg 47%
    18:00 +34°C° 0 mm 2 mps 750 mmHg 50%
    19:00 +31°C° 0 mm 2 mps 750 mmHg 55%
    20:00 +30°C° 0 mm 2 mps 750 mmHg 61%
    21:00 +29°C° 0 mm 1 mps 751 mmHg 66%
    22:00 +28°C° 0 mm 2 mps 751 mmHg 71%
    23:00 +27°C° 0 mm 3 mps 750 mmHg 75%
    Show more